FW7967 Weather Reports


Display with metric or nautical units.
time (UTC)temp
F
wind
direction
speed
MPH
gust
MPH
rain 1hr
in
rain 24hr
in
rain mn
in
humidity
%
barometer
mb
20240712123630 69 64 0.0 0.0 0.00 0.00 0.00 90 1019.1
20240712123130 69 137 0.0 0.0 0.00 0.00 0.00 89 1019.1
20240712122628 69 210 0.0 0.0 0.00 0.00 0.00 89 1018.8
20240712122125 69 283 0.0 0.0 0.00 0.00 0.00 89 1018.8
20240712121624 69 49 0.0 0.0 0.00 0.00 0.00 89 1018.8
20240712121122 69 122 0.0 0.0 0.00 0.00 0.00 88 1018.8
20240712120622 69 195 0.0 0.0 0.00 0.00 0.00 88 1018.8
20240712120120 69 268 0.0 0.0 0.00 0.00 0.00 88 1018.8
20240712115620 69 34 0.0 0.0 0.00 0.00 0.00 87 1018.4
20240712115118 68 107 0.0 0.0 0.00 0.00 0.00 86 1018.4
20240712114617 68 180 0.0 0.0 0.00 0.00 0.00 86 1018.4
20240712114116 68 253 0.0 0.0 0.00 0.00 0.00 85 1018.4
20240712113615 67 326 0.0 0.0 0.00 0.00 0.00 87 1018.4
20240712113113 67 240 0.0 0.0 0.00 0.00 0.00 89 1018.4
20240712112611 66 313 0.0 0.0 0.00 0.00 0.00 90 1018.4
20240712112108 66 26 0.0 0.0 0.00 0.00 0.00 89 1018.4
20240712111608 66 152 0.0 0.0 0.00 0.00 0.00 89 1018.4
20240712111107 66 225 0.0 0.0 0.00 0.00 0.00 90 1018.4
20240712110605 66 298 0.0 0.0 0.00 0.00 0.00 90 1018.1
20240712110104 66 11 0.0 0.0 0.00 0.00 0.00 90 1018.1
20240712105601 66 137 0.0 0.0 0.00 0.00 0.00 90 1018.1
20240712105059 66 210 0.0 0.0 0.00 0.00 0.00 90 1018.1
20240712104559 66 283 0.0 0.0 0.00 0.00 0.00 89 1017.7
20240712104055 66 356 0.0 0.0 0.00 0.00 0.00 89 1017.7
20240712103553 66 69 0.0 0.0 0.00 0.00 0.00 89 1018.1
20240712103052 66 195 0.0 0.0 0.00 0.00 0.00 90 1017.7
20240712102550 66 268 0.0 0.0 0.00 0.00 0.00 91 1017.7
20240712102047 66 341 0.0 0.0 0.00 0.00 0.00 92 1017.7
20240712101544 66 54 0.0 0.0 0.00 0.00 0.00 93 1017.7
20240712101043 65 180 0.0 0.0 0.00 0.00 0.00 92 1017.7
20240712100542 65 253 0.0 0.0 0.00 0.00 0.00 91 1017.7
20240712100042 65 326 0.0 0.0 0.00 0.00 0.00 91 1017.7
20240712095540 65 39 0.0 0.0 0.00 0.00 0.00 91 1017.7
20240712095038 65 165 0.0 0.0 0.00 0.00 0.00 92 1017.7
20240712094536 65 238 0.0 0.0 0.00 0.00 0.00 92 1017.7
20240712094037 65 311 0.0 0.0 0.00 0.00 0.00 92 1017.7
20240712093535 65 24 0.0 0.0 0.00 0.00 0.00 92 1017.7
20240712093035 65 97 0.0 0.0 0.00 0.00 0.00 92 1017.7
20240712092535 65 223 0.0 0.0 0.00 0.00 0.00 92 1017.3
20240712092034 65 296 0.0 0.0 0.00 0.00 0.00 92 1017.7
20240712091531 65 9 0.0 0.0 0.00 0.00 0.00 92 1017.3
20240712091030 65 82 0.0 0.0 0.00 0.00 0.00 92 1017.3
20240712090528 65 208 0.0 0.0 0.00 0.00 0.00 92 1017.3
20240712090028 65 281 0.0 0.0 0.00 0.00 0.00 92 1017.3
20240712085528 65 354 0.0 0.0 0.00 0.00 0.00 92 1017.3
20240712085028 64 67 0.0 0.0 0.00 0.00 0.00 92 1017.3
20240712084527 64 193 0.0 0.0 0.00 0.00 0.00 93 1017.3
20240712084026 64 266 0.0 0.0 0.00 0.00 0.00 94 1017.3
20240712083526 64 339 0.0 0.0 0.00 0.00 0.00 94 1017.7
20240712083024 64 52 0.0 0.0 0.00 0.00 0.00 95 1017.7
20240712082524 64 125 0.0 0.0 0.00 0.00 0.00 95 1017.7
20240712082022 64 251 0.0 0.0 0.00 0.00 0.00 95 1017.7
20240712081521 64 324 0.0 0.0 0.00 0.00 0.00 96 1017.7
20240712081018 64 37 0.0 0.0 0.00 0.00 0.00 96 1017.3
20240712080518 64 110 0.0 0.0 0.00 0.00 0.00 96 1017.7
20240712080017 64 236 0.0 0.0 0.00 0.00 0.00 96 1017.3
20240712075507 64 309 0.0 0.0 0.00 0.00 0.00 96 1017.3
20240712075006 64 22 0.0 0.0 0.00 0.00 0.00 96 1017.3
20240712074504 65 95 0.0 0.0 0.00 0.00 0.00 96 1017.3
20240712074002 65 221 0.0 0.0 0.00 0.00 0.00 96 1017.3
20240712073500 65 294 0.0 0.0 0.00 0.00 0.00 95 1017.3
20240712072959 65 7 0.0 0.0 0.00 0.00 0.00 95 1017.7
20240712072458 65 80 0.0 0.0 0.00 0.00 0.00 95 1017.3
20240712071958 65 354 0.0 0.0 0.00 0.00 0.00 94 1017.7
20240712071455 65 67 0.0 0.0 0.00 0.00 0.00 94 1017.3
20240712070952 65 140 0.0 0.0 0.00 0.00 0.00 94 1017.7
20240712070452 65 213 0.0 0.0 0.00 0.00 0.00 94 1017.7
20240712065951 66 339 0.0 0.0 0.00 0.00 0.00 93 1017.7
20240712065449 66 52 0.0 0.0 0.00 0.00 0.00 93 1017.7
20240712064948 66 125 0.0 0.0 0.00 0.00 0.00 93 1017.7
20240712064445 66 198 0.0 0.0 0.00 0.00 0.00 93 1017.3
20240712063942 66 324 0.0 0.0 0.00 0.00 0.00 93 1017.3
20240712063441 66 37 0.0 0.0 0.00 0.00 0.00 92 1017.3
20240712062940 66 110 0.0 0.0 0.00 0.00 0.00 92 1017.7
20240712062438 66 183 0.0 0.0 0.00 0.00 0.00 92 1017.3
20240712061934 66 256 0.0 0.0 0.00 0.00 0.00 91 1017.3
20240712061433 66 22 0.0 0.0 0.00 0.00 0.00 90 1017.7
20240712060932 67 95 0.0 0.0 0.00 0.00 0.00 90 1017.7
20240712060430 67 168 0.0 0.0 0.00 0.00 0.00 90 1017.7
20240712055929 67 241 0.0 0.0 0.00 0.00 0.00 91 1017.7
20240712055429 67 7 0.0 0.0 0.00 0.00 0.00 91 1017.7
20240712054929 67 80 0.0 0.0 0.00 0.00 0.00 91 1017.7
20240712054427 67 153 0.0 0.0 0.00 0.00 0.00 91 1017.7
20240712053926 67 226 0.0 0.0 0.00 0.00 0.00 91 1017.7
20240712053425 68 352 0.0 0.0 0.00 0.00 0.00 91 1017.7
20240712052924 68 65 0.0 0.0 0.00 0.00 0.00 91 1017.7
20240712052423 68 138 0.0 0.0 0.00 0.00 0.00 91 1017.7
20240712051921 68 211 0.0 0.0 0.00 0.00 0.00 91 1017.7
20240712051419 68 284 0.0 0.0 0.00 0.00 0.00 90 1017.7
20240712050917 69 50 0.0 0.0 0.00 0.00 0.00 89 1017.7
20240712050417 69 123 0.0 0.0 0.00 0.00 0.00 89 1017.7
20240712045915 69 196 0.0 0.0 0.00 0.00 0.00 88 1018.1
20240712045413 69 269 0.0 0.0 0.00 0.00 0.00 88 1018.1
20240712044911 69 35 0.0 0.0 0.00 0.00 0.00 88 1018.1
20240712044410 70 108 0.0 0.0 0.00 0.00 0.00 87 1017.7
20240712043909 70 181 0.0 0.0 0.00 0.00 0.00 87 1017.7
20240712043407 70 254 0.0 0.0 0.00 0.00 0.00 87 1017.7
20240712042906 70 20 0.0 0.0 0.00 0.00 0.00 86 1017.3
20240712042405 70 93 0.0 0.0 0.00 0.00 0.00 86 1017.3
20240712041903 70 166 0.0 0.0 0.00 0.00 0.00 86 1017.7
20240712041401 70 239 0.0 0.0 0.00 0.00 0.00 86 1017.7
20240712040859 71 312 0.0 0.0 0.00 0.00 0.00 85 1017.7
20240712040358 71 78 0.0 0.0 0.00 0.00 0.00 86 1017.7
20240712035857 71 151 0.0 0.0 0.00 0.00 0.00 86 1017.7
20240712035356 71 224 0.0 0.0 0.00 0.00 0.00 85 1017.3
20240712034854 71 297 0.0 0.0 0.00 0.00 0.00 86 1017.3
20240712034353 71 63 0.0 0.0 0.00 0.00 0.00 85 1017.3
20240712033853 71 136 0.0 0.0 0.00 0.00 0.00 85 1017.7
20240712033352 71 209 0.0 0.0 0.00 0.00 0.00 85 1017.3
20240712032850 71 282 0.0 0.0 0.00 0.00 0.00 85 1017.3
20240712032349 72 48 0.0 0.0 0.00 0.00 0.00 84 1017.3
20240712031848 72 121 0.0 0.0 0.00 0.00 0.00 83 1017.3
20240712031347 72 194 0.0 0.0 0.00 0.00 0.00 83 1017.3
20240712030845 72 267 0.0 0.0 0.00 0.00 0.00 82 1017.3
20240712030344 72 340 0.0 0.0 0.00 0.00 0.00 82 1017.3
20240712025842 73 106 0.0 0.0 0.00 0.00 0.00 81 1017.3
20240712025342 73 179 0.0 0.0 0.00 0.00 0.00 81 1017.3
20240712024841 73 40 0.0 0.0 0.00 0.00 0.00 81 1017.3
20240712024340 73 166 2.0 3.0 0.00 0.00 0.00 80 1017.3
20240712023839 73 239 0.0 0.0 0.00 0.00 0.00 80 1017.0
20240712023338 73 312 0.0 0.0 0.00 0.00 0.00 79 1017.0
20240712022834 73 25 0.0 0.0 0.00 0.00 0.00 78 1017.3
20240712022333 74 151 0.0 0.0 0.00 0.00 0.00 78 1017.3
20240712021832 74 224 1.0 3.0 0.00 0.00 0.00 77 1017.3
20240712021330 74 297 0.0 3.0 0.00 0.00 0.00 77 1017.0
20240712020829 74 10 0.0 0.0 0.00 0.00 0.00 76 1017.0
20240712020325 75 83 0.0 0.0 0.00 0.00 0.00 75 1017.0
20240712015825 75 209 0.0 0.0 0.00 0.00 0.00 75 1017.0
20240712015323 75 282 0.0 0.0 0.00 0.00 0.00 75 1017.0
20240712014821 75 355 0.0 0.0 0.00 0.00 0.00 75 1017.0
20240712014321 76 68 0.0 0.0 0.00 0.00 0.00 76 1017.0
20240712013820 76 194 0.0 0.0 0.00 0.00 0.00 75 1016.6
20240712013318 76 267 0.0 0.0 0.00 0.00 0.00 75 1017.0
20240712012816 76 340 0.0 0.0 0.00 0.00 0.00 74 1017.0
20240712012315 76 53 0.0 0.0 0.00 0.00 0.00 74 1017.0
20240712011814 77 179 0.0 0.0 0.00 0.00 0.00 74 1016.6
20240712011313 77 252 0.0 0.0 0.00 0.00 0.00 73 1017.0
20240712010812 77 325 0.0 0.0 0.00 0.00 0.00 73 1016.6
20240712010310 78 38 0.0 0.0 0.00 0.00 0.00 72 1016.6
20240712005809 78 111 0.0 0.0 0.00 0.00 0.00 71 1016.6
20240712005307 79 237 0.0 0.0 0.00 0.00 0.00 71 1016.6
20240712004807 79 310 0.0 0.0 0.00 0.00 0.00 70 1016.6
20240712004305 80 23 0.0 0.0 0.00 0.00 0.00 69 1016.6
20240712003805 80 96 0.0 0.0 0.00 0.00 0.00 68 1016.3
20240712003304 80 222 0.0 0.0 0.00 0.00 0.00 67 1016.3
20240712002804 80 295 0.0 0.0 0.00 0.00 0.00 66 1016.3
20240712002306 80 8 0.0 0.0 0.00 0.00 0.00 64 1016.6
20240712001804 80 81 0.0 0.0 0.00 0.00 0.00 64 1016.3
20240712001303 80 207 0.0 0.0 0.00 0.00 0.00 64 1016.3
20240712000803 80 280 1.0 3.0 0.00 0.00 0.00 63 1016.6
20240712000303 80 353 0.0 0.0 0.00 0.00 0.00 65 1016.3
20240711235800 80 66 0.0 0.0 0.00 0.00 0.00 63 1016.3
20240711235258 81 139 3.0 5.0 0.00 0.00 0.00 64 1016.3
20240711234756 81 265 4.0 5.0 0.00 0.00 0.00 63 1016.3
20240711234256 81 338 4.0 5.0 0.00 0.00 0.00 63 1016.3
20240711233754 81 51 5.0 7.0 0.00 0.00 0.00 61 1016.0
20240711233253 81 124 1.0 3.0 0.00 0.00 0.00 61 1016.3
20240711232751 81 250 0.0 0.0 0.00 0.00 0.00 60 1016.0
20240711232250 81 323 2.0 3.0 0.00 0.00 0.00 61 1016.0
20240711231748 81 36 3.0 5.0 0.00 0.00 0.00 62 1016.3
20240711231246 81 109 4.0 5.0 0.00 0.00 0.00 61 1016.3
20240711230743 81 182 4.0 7.0 0.00 0.00 0.00 61 1016.0
20240711230243 81 308 4.0 5.0 0.00 0.00 0.00 60 1016.0
20240711225740 82 350 4.0 5.0 0.00 0.00 0.00 58 1016.0
20240711225240 82 169 0.0 0.0 0.00 0.00 0.00 59 1016.0
20240711224738 83 242 0.0 3.0 0.00 0.00 0.00 60 1016.3
20240711224237 82 8 0.0 0.0 0.00 0.00 0.00 57 1016.0
20240711223736 82 81 0.0 0.0 0.00 0.00 0.00 59 1016.0
20240711223235 82 154 2.0 3.0 0.00 0.00 0.00 60 1016.0
20240711222732 82 227 0.0 0.0 0.00 0.00 0.00 58 1016.0
20240711222230 82 353 0.0 0.0 0.00 0.00 0.00 59 1016.0
20240711221729 82 66 0.0 0.0 0.00 0.00 0.00 56 1016.0
20240711221228 81 139 0.0 0.0 0.00 0.00 0.00 61 1016.0
20240711220727 82 212 3.0 3.0 0.00 0.00 0.00 60 1016.0
20240711220225 82 338 5.0 7.0 0.00 0.00 0.00 58 1016.0
20240711215723 82 51 4.0 5.0 0.00 0.00 0.00 59 1016.0
20240711215223 82 124 6.0 7.0 0.00 0.00 0.00 58 1016.0
20240711214721 82 345 0.0 0.0 0.00 0.00 0.00 56 1016.0
20240711214219 82 111 4.0 5.0 0.00 0.00 0.00 59 1016.0
20240711213719 82 184 1.0 5.0 0.00 0.00 0.00 57 1016.0
20240711213218 82 257 2.0 3.0 0.00 0.00 0.00 57 1016.3
20240711212716 82 330 0.0 0.0 0.00 0.00 0.00 58 1016.0
20240711212215 82 96 2.0 3.0 0.00 0.00 0.00 59 1016.0
20240711211713 82 169 0.0 0.0 0.00 0.00 0.00 63 1016.0
20240711211212 82 242 4.0 5.0 0.00 0.00 0.00 61 1016.0
20240711210710 82 315 3.0 5.0 0.00 0.00 0.00 62 1016.0
20240711210208 82 28 5.0 5.0 0.00 0.00 0.00 60 1016.0
20240711205706 82 154 0.0 3.0 0.00 0.00 0.00 59 1016.0
20240711205204 82 227 2.0 3.0 0.00 0.00 0.00 58 1016.0
20240711204703 82 300 0.0 0.0 0.00 0.00 0.00 62 1016.0
20240711204201 82 13 0.0 0.0 0.00 0.00 0.00 64 1016.3
20240711203656 82 139 3.0 5.0 0.00 0.00 0.00 64 1016.3
20240711203156 82 212 0.0 0.0 0.00 0.00 0.00 61 1016.3
20240711202652 82 285 2.0 5.0 0.00 0.00 0.00 61 1016.3
20240711202152 82 358 1.0 3.0 0.00 0.00 0.00 63 1016.0
20240711201650 82 124 0.0 0.0 0.00 0.00 0.00 64 1016.0
20240711201149 82 197 0.0 0.0 0.00 0.00 0.00 60 1016.0
20240711200645 80 292 0.0 0.0 0.00 0.00 0.00 64 1016.3
20240711200144 80 58 1.0 3.0 0.00 0.00 0.00 65 1016.3
20240711195643 80 184 3.0 5.0 0.00 0.00 0.00 63 1016.3
20240711195142 80 257 2.0 3.0 0.00 0.00 0.00 63 1016.0
20240711194641 80 330 0.0 0.0 0.00 0.00 0.00 64 1016.0
20240711194140 80 43 3.0 5.0 0.00 0.00 0.00 63 1016.3
20240711193637 80 116 4.0 5.0 0.00 0.00 0.00 65 1016.0
20240711193137 80 242 3.0 3.0 0.00 0.00 0.00 66 1016.0
20240711192636 80 315 1.0 3.0 0.00 0.00 0.00 60 1016.3
20240711192134 79 28 3.0 5.0 0.00 0.00 0.00 62 1016.3
20240711191633 79 101 1.0 3.0 0.00 0.00 0.00 65 1016.0
20240711191132 79 227 2.0 3.0 0.00 0.00 0.00 68 1016.0
20240711190628 79 300 0.0 3.0 0.00 0.00 0.00 65 1016.3
20240711190127 79 13 0.0 0.0 0.00 0.00 0.00 65 1016.0
20240711185627 78 86 8.0 10.0 0.00 0.00 0.00 64 1016.3
20240711185125 78 159 2.0 3.0 0.00 0.00 0.00 68 1016.3
20240711184623 78 285 4.0 5.0 0.00 0.00 0.00 68 1016.3
20240711184121 78 358 1.0 3.0 0.00 0.00 0.00 69 1016.3
20240711183620 78 18 0.0 0.0 0.00 0.00 0.00 67 1016.3
20240711183118 78 144 2.0 3.0 0.00 0.00 0.00 68 1016.3
20240711182617 78 270 0.0 0.0 0.00 0.00 0.00 69 1016.3
20240711182115 78 343 0.0 0.0 0.00 0.00 0.00 67 1016.3
20240711181615 78 56 6.0 7.0 0.00 0.00 0.00 68 1016.3
20240711181114 78 129 7.0 10.0 0.00 0.00 0.00 71 1016.3
20240711180613 78 255 0.0 3.0 0.00 0.00 0.00 66 1016.3
20240711180112 78 328 3.0 5.0 0.00 0.00 0.00 68 1016.3
20240711175610 78 41 6.0 7.0 0.00 0.00 0.00 68 1016.3
20240711175109 78 114 3.0 5.0 0.00 0.00 0.00 67 1016.3
20240711174608 78 187 6.0 7.0 0.00 0.00 0.00 68 1016.6
20240711174106 78 101 1.0 3.0 0.00 0.00 0.00 71 1016.3
20240711173603 78 174 6.0 7.0 0.00 0.00 0.00 70 1016.3
20240711173103 77 247 0.0 0.0 0.00 0.00 0.00 70 1016.3
20240711172601 77 13 3.0 5.0 0.00 0.00 0.00 68 1016.6
20240711172100 77 86 1.0 5.0 0.00 0.00 0.00 69 1016.3
20240711171559 77 159 0.0 3.0 0.00 0.00 0.00 71 1016.3
20240711171055 77 232 0.0 3.0 0.00 0.00 0.00 72 1016.6
20240711170553 77 358 3.0 5.0 0.00 0.00 0.00 72 1016.6
20240711170053 77 71 3.0 5.0 0.00 0.00 0.00 72 1016.6
20240711165552 76 144 3.0 3.0 0.00 0.00 0.00 73 1016.6
20240711165048 76 217 5.0 7.0 0.00 0.00 0.00 72 1016.6
20240711164547 76 343 13.0 15.0 0.00 0.00 0.00 71 1016.3
20240711164047 76 56 4.0 5.0 0.00 0.00 0.00 72 1016.6
20240711163545 76 129 3.0 5.0 0.00 0.00 0.00 72 1016.6
20240711163044 76 202 5.0 7.0 0.00 0.00 0.00 74 1016.3
20240711162542 76 275 1.0 3.0 0.00 0.00 0.00 72 1016.3
20240711162042 75 41 7.0 7.0 0.00 0.00 0.00 75 1016.3
20240711161537 75 114 8.0 10.0 0.00 0.00 0.00 74 1016.3
20240711161036 75 187 0.0 0.0 0.00 0.00 0.00 74 1016.3
20240711160532 75 260 0.0 0.0 0.00 0.00 0.00 76 1016.3
20240711160030 75 26 7.0 7.0 0.00 0.00 0.00 77 1016.3
20240711155527 75 99 2.0 5.0 0.00 0.00 0.00 78 1016.3
20240711155026 75 172 4.0 5.0 0.00 0.00 0.00 79 1016.3
20240711154521 74 245 0.0 3.0 0.00 0.00 0.00 79 1016.3
20240711154021 74 11 3.0 5.0 0.00 0.00 0.00 78 1016.3
20240711153518 74 84 1.0 3.0 0.00 0.00 0.00 80 1016.3
20240711153018 73 157 2.0 3.0 0.00 0.00 0.00 80 1016.0
20240711152517 73 230 2.0 3.0 0.00 0.00 0.00 80 1016.0
20240711152015 73 303 5.0 7.0 0.00 0.00 0.00 81 1016.0
20240711151514 73 69 8.0 10.0 0.00 0.00 0.00 82 1016.0
20240711151014 73 142 4.0 7.0 0.00 0.00 0.00 84 1016.0
20240711150512 73 215 5.0 7.0 0.00 0.00 0.00 83 1016.0
20240711150011 72 288 5.0 7.0 0.00 0.00 0.00 85 1016.0
20240711145507 72 54 7.0 10.0 0.00 0.00 0.00 85 1016.0
20240711145006 72 127 5.0 7.0 0.00 0.00 0.00 85 1016.0
20240711144503 72 200 5.0 5.0 0.00 0.00 0.00 85 1016.0
20240711144002 71 273 7.0 10.0 0.00 0.00 0.00 85 1016.0
20240711143500 71 39 3.0 3.0 0.00 0.00 0.00 84 1016.0
20240711143000 71 112 3.0 5.0 0.00 0.00 0.00 87 1016.0
20240711142500 71 185 10.0 12.0 0.00 0.00 0.00 87 1016.0
20240711141956 71 258 11.0 12.0 0.00 0.00 0.00 88 1016.0
20240711141455 71 331 5.0 7.0 0.00 0.00 0.00 88 1016.0
20240711140955 71 97 2.0 3.0 0.00 0.00 0.00 89 1016.0
20240711140455 70 170 4.0 5.0 0.00 0.00 0.00 89 1016.0
20240711135954 70 243 8.0 10.0 0.00 0.00 0.00 89 1016.0
20240711135453 70 316 6.0 7.0 0.00 0.00 0.00 89 1016.0
20240711134952 70 82 6.0 7.0 0.00 0.00 0.00 89 1016.0
20240711134451 70 303 1.0 3.0 0.00 0.00 0.00 90 1016.0
20240711133949 70 16 8.0 10.0 0.00 0.00 0.00 91 1015.6
20240711133448 69 142 2.0 5.0 0.00 0.00 0.00 91 1015.6
20240711132946 69 215 3.0 5.0 0.00 0.00 0.00 91 1015.6
20240711132446 69 288 2.0 5.0 0.00 0.00 0.00 92 1015.6
20240711131945 68 1 4.0 5.0 0.00 0.00 0.00 93 1015.6
20240711131445 68 74 4.0 5.0 0.00 0.00 0.00 94 1015.3
20240711130943 68 200 5.0 7.0 0.00 0.00 0.00 94 1015.3
20240711130442 67 273 3.0 5.0 0.00 0.00 0.00 95 1015.6
20240711125942 67 346 2.0 3.0 0.00 0.00 0.00 95 1015.3
20240711125441 67 59 4.0 5.0 0.00 0.00 0.00 96 1015.3
20240711124939 66 185 2.0 3.0 0.00 0.00 0.00 99 1015.3
20240711124436 66 258 0.0 3.0 0.00 0.00 0.00 99 1015.3